TimeCDT,TemperatureF,Dew PointF,Humidity,Sea Level PressureIn,VisibilityMPH,Wind Direction,Wind SpeedMPH,Gust SpeedMPH,PrecipitationIn,Events,Conditions,WindDirDegrees,DateUTC
12:15 AM,70.9,61.3,72,29.71,-9999.0,South,4.6,-,N/A,,Unknown,170,2013-04-10 05:15:00
12:35 AM,70.9,61.3,72,29.72,-9999.0,South,4.6,-,N/A,,Unknown,190,2013-04-10 05:35:00
12:55 AM,66.9,59.2,76,29.76,-9999.0,NW,12.7,20.7,N/A,,Overcast,310,2013-04-10 05:55:00
1:15 AM,57.6,56.1,95,29.77,-9999.0,NW,13.8,24.2,N/A,,Overcast,320,2013-04-10 06:15:00
1:35 AM,55.8,55.9,100,29.78,-9999.0,NW,12.7,21.9,N/A,,Overcast,320,2013-04-10 06:35:00
1:55 AM,54.7,55.0,100,29.79,-9999.0,NNW,15.0,24.2,N/A,,Overcast,340,2013-04-10 06:55:00
2:15 AM,51.8,52.0,100,29.80,-9999.0,North,12.7,21.9,N/A,,Overcast,350,2013-04-10 07:15:00
2:35 AM,50.9,50.9,100,29.77,-9999.0,North,9.2,16.1,N/A,,Overcast,10,2013-04-10 07:35:00
2:55 AM,50.9,50.9,100,29.76,-9999.0,NNE,9.2,-,N/A,Thunderstorm,Overcast,20,2013-04-10 07:55:00
3:15 AM,50.9,50.9,100,29.77,-9999.0,NNE,8.1,-,N/A,Thunderstorm,Overcast,30,2013-04-10 08:15:00
3:35 AM,50.9,50.9,100,29.77,-9999.0,NE,10.4,-,N/A,Thunderstorm,Overcast,50,2013-04-10 08:35:00
3:55 AM,50.9,50.9,100,29.84,-9999.0,WNW,9.2,33.4,N/A,,Overcast,290,2013-04-10 08:55:00
4:15 AM,50.9,50.9,100,29.83,-9999.0,NW,12.7,17.3,N/A,,Overcast,320,2013-04-10 09:15:00
4:35 AM,50.4,50.5,100,29.84,-9999.0,NNW,5.8,-,N/A,,Unknown,330,2013-04-10 09:35:00
4:55 AM,49.8,50.0,100,29.83,-9999.0,NNW,3.5,-,N/A,,Unknown,330,2013-04-10 09:55:00
5:15 AM,-9999,-9999,N/A,29.80,-9999.0,North,8.1,-,N/A,Thunderstorm,Thunderstorm,360,2013-04-10 10:15:00
5:35 AM,50.9,50.9,100,29.82,-9999.0,NW,11.5,16.1,N/A,,Overcast,320,2013-04-10 10:35:00
5:55 AM,49.1,49.3,100,29.83,-9999.0,NW,9.2,18.4,N/A,,Overcast,320,2013-04-10 10:55:00
6:15 AM,46.8,46.9,100,29.85,-9999.0,WNW,11.5,19.6,N/A,Thunderstorm,Overcast,300,2013-04-10 11:15:00
6:35 AM,-9999,-9999,N/A,29.84,-9999.0,NNW,11.5,-,0.01,,Overcast,330,2013-04-10 11:35:00
6:55 AM,43.0,43.2,100,29.83,-9999.0,North,8.1,16.1,0.01,Thunderstorm,Thunderstorm,350,2013-04-10 11:55:00
7:15 AM,43.0,43.2,100,29.84,-9999.0,NNW,6.9,-,N/A,Thunderstorm,Overcast,340,2013-04-10 12:15:00
7:35 AM,43.0,43.2,100,29.86,-9999.0,Calm,Calm,-,N/A,Thunderstorm,Overcast,0,2013-04-10 12:35:00
7:55 AM,43.0,43.2,100,29.83,-9999.0,NNW,11.5,18.4,0.01,Thunderstorm,Overcast,330,2013-04-10 12:55:00
8:15 AM,43.0,43.2,100,29.91,-9999.0,West,8.1,-,N/A,,Overcast,260,2013-04-10 13:15:00
8:35 AM,43.0,43.2,100,29.86,-9999.0,North,12.7,17.3,0.01,Thunderstorm,Overcast,350,2013-04-10 13:35:00
8:55 AM,43.0,43.2,100,29.85,-9999.0,North,8.1,-,0.03,Thunderstorm,Overcast,360,2013-04-10 13:55:00
9:15 AM,43.0,43.2,100,29.91,-9999.0,WNW,9.2,17.3,0.02,Thunderstorm,Overcast,300,2013-04-10 14:15:00
9:35 AM,42.8,42.8,100,29.91,-9999.0,NW,5.8,-,0.03,Thunderstorm,Thunderstorm,320,2013-04-10 14:35:00
9:55 AM,42.1,42.1,100,29.83,-9999.0,West,20.7,39.1,0.05,Thunderstorm,Unknown,280,2013-04-10 14:55:00
10:15 AM,41.9,41.9,100,29.85,-9999.0,NNW,8.1,-,0.01,Thunderstorm,Thunderstorm,330,2013-04-10 15:15:00
10:35 AM,41.9,-9999,N/A,29.83,-9999.0,North,9.2,17.3,0.03,Thunderstorm,Overcast,360,2013-04-10 15:35:00
10:55 AM,42.1,-9999,N/A,29.86,-9999.0,NNW,6.9,-,0.05,Thunderstorm,Overcast,340,2013-04-10 15:55:00
11:15 AM,42.8,43.0,100,29.88,-9999.0,NW,6.9,-,0.01,Thunderstorm,Thunderstorm,310,2013-04-10 16:15:00
11:35 AM,42.8,43.0,100,29.86,-9999.0,NNW,12.7,-,0.03,,Overcast,330,2013-04-10 16:35:00
11:55 AM,42.6,42.8,100,29.85,-9999.0,NNW,9.2,-,0.04,Thunderstorm,Thunderstorm,330,2013-04-10 16:55:00
12:15 PM,41.9,42.1,100,29.85,-9999.0,NNW,12.7,16.1,0.01,Thunderstorm,Overcast,330,2013-04-10 17:15:00
12:35 PM,42.1,42.3,100,29.85,-9999.0,NW,6.9,-,0.02,Thunderstorm,Overcast,310,2013-04-10 17:35:00
12:55 PM,41.9,41.9,100,29.85,-9999.0,NW,4.6,-,0.03,,Overcast,320,2013-04-10 17:55:00
1:15 PM,42.1,42.1,100,29.83,-9999.0,NNW,8.1,-,0.01,Thunderstorm,Thunderstorm,330,2013-04-10 18:15:00
1:35 PM,42.1,42.3,100,29.85,-9999.0,NW,9.2,-,0.02,Thunderstorm,Overcast,320,2013-04-10 18:35:00
1:55 PM,41.9,41.9,100,29.86,-9999.0,WNW,8.1,-,0.03,Thunderstorm,Overcast,290,2013-04-10 18:55:00
2:15 PM,41.9,41.9,100,29.86,7.0,NW,9.2,-,N/A,Thunderstorm,Overcast,320,2013-04-10 19:15:00
2:35 PM,41.7,41.7,100,29.84,3.0,NNW,10.4,17.3,0.01,Thunderstorm,Thunderstorm,330,2013-04-10 19:35:00
2:55 PM,41.0,41.0,100,29.84,7.0,NNW,13.8,18.4,0.02,Thunderstorm,Thunderstorm,330,2013-04-10 19:55:00
3:15 PM,40.8,41.0,100,29.79,7.0,NNW,15.0,19.6,0.01,Thunderstorm,Overcast,330,2013-04-10 20:15:00
3:35 PM,41.7,41.7,100,29.81,10.0,NW,10.4,18.4,0.01,Thunderstorm,Overcast,320,2013-04-10 20:35:00
3:55 PM,-9999,-9999,N/A,29.82,10.0,NNW,9.2,-,0.02,Thunderstorm,Overcast,330,2013-04-10 20:55:00
4:15 PM,41.2,41.4,100,29.85,7.0,West,8.1,-,0.01,Thunderstorm,Overcast,280,2013-04-10 21:15:00
4:35 PM,40.8,41.0,100,29.81,4.0,NW,6.9,-,0.01,,Overcast,320,2013-04-10 21:35:00
4:55 PM,40.5,40.6,100,29.75,5.0,North,9.2,-,0.02,,Overcast,10,2013-04-10 21:55:00
5:15 PM,40.5,40.6,100,29.77,10.0,NW,12.7,21.9,0.01,,Overcast,320,2013-04-10 22:15:00
5:35 PM,40.5,40.6,100,29.82,7.0,NW,5.8,-,0.02,,Overcast,310,2013-04-10 22:35:00
5:55 PM,40.5,40.6,100,29.82,10.0,WNW,6.9,-,0.02,,Overcast,300,2013-04-10 22:55:00
6:15 PM,40.5,40.6,100,29.83,7.0,NW,8.1,-,0.01,,Overcast,310,2013-04-10 23:15:00
6:35 PM,40.5,40.6,100,29.83,3.0,NW,9.2,-,0.02,,Overcast,320,2013-04-10 23:35:00
6:55 PM,40.5,40.6,100,29.82,1.5,NW,10.4,-,0.02,,Overcast,310,2013-04-10 23:55:00
7:15 PM,-9999,-9999,N/A,29.83,3.0,NW,9.2,-,0.01,,Overcast,310,2013-04-11 00:15:00
7:35 PM,38.8,39.0,100,29.82,2.5,NNW,10.4,-,0.01,,Overcast,330,2013-04-11 00:35:00
7:55 PM,40.1,40.3,100,29.84,7.0,WNW,5.8,-,0.02,,Overcast,300,2013-04-11 00:55:00
8:15 PM,40.5,40.6,100,29.84,5.0,WNW,8.1,-,N/A,,Overcast,300,2013-04-11 01:15:00
8:35 PM,40.5,40.6,100,29.83,7.0,NW,5.8,-,0.01,,Overcast,310,2013-04-11 01:35:00
8:55 PM,40.3,40.5,100,29.84,10.0,West,5.8,-,0.01,,Overcast,280,2013-04-11 01:55:00
9:15 PM,40.5,40.6,100,29.85,10.0,West,5.8,-,0.01,,Overcast,280,2013-04-11 02:15:00
9:55 PM,38.7,38.8,100,29.86,10.0,West,10.4,-,0.02,,Overcast,280,2013-04-11 02:55:00
10:15 PM,-9999,-9999,N/A,29.86,10.0,WNW,10.4,18.4,N/A,,Overcast,290,2013-04-11 03:15:00
10:35 PM,-9999,-9999,N/A,29.87,10.0,WNW,10.4,17.3,N/A,,Overcast,290,2013-04-11 03:35:00
10:55 PM,-9999,-9999,N/A,29.87,5.0,West,9.2,-,0.01,,Overcast,280,2013-04-11 03:55:00
11:15 PM,-9999,-9999,N/A,29.87,10.0,West,6.9,-,N/A,,Overcast,280,2013-04-11 04:15:00
11:35 PM,-9999,-9999,N/A,29.88,7.0,WNW,9.2,16.1,0.01,,Overcast,290,2013-04-11 04:35:00
11:55 PM,37.2,37.4,100,29.87,5.0,WNW,8.1,16.1,0.01,,Overcast,300,2013-04-11 04:55:00